• In Germany
  • List of Countries
  • For 7 days
  • Water Temperature
  • Satellite Maps
  • Weather Map
  • Weather Widgets
  • user-avatar
    Login

    Hourly Weather Kalwaria Zebrzydowska

    Today, 11 December, Monday

    Time Temperature Precipitation Wind Pressure Humidity
    00:00 -1°C° 0 mm 6 mps 719 mmHg 72%
    01:00 +1°C° 0 mm 2 mps 719 mmHg 79%
    02:00 0°C° 0 mm 3 mps 719 mmHg 78%
    03:00 0°C° 0 mm 4 mps 719 mmHg 78%
    04:00 0°C° 0 mm 5 mps 719 mmHg 77%
    05:00 +1°C° 0 mm 5 mps 719 mmHg 78%
    06:00 +1°C° 0 mm 5 mps 719 mmHg 78%
    07:00 +1°C° 0 mm 5 mps 719 mmHg 79%
    08:00 +3°C° 0 mm 4 mps 719 mmHg 79%
    09:00 +4°C° 0 mm 4 mps 719 mmHg 78%
    10:00 +5°C° 0 mm 4 mps 719 mmHg 78%
    11:00 +6°C° 0 mm 4 mps 719 mmHg 78%
    12:00 +6°C° 0 mm 4 mps 718 mmHg 78%
    13:00 +7°C° 0 mm 4 mps 718 mmHg 78%
    14:00 +7°C° 0 mm 5 mps 718 mmHg 79%
    15:00 +8°C° 0 mm 6 mps 718 mmHg 79%
    16:00 +8°C° 0 mm 6 mps 718 mmHg 80%
    17:00 +8°C° 0 mm 7 mps 717 mmHg 79%
    18:00 +9°C° 0 mm 8 mps 717 mmHg 78%
    19:00 +9°C° 0 mm 8 mps 717 mmHg 77%
    20:00 +9°C° 0 mm 8 mps 717 mmHg 77%
    21:00 +9°C° 0 mm 8 mps 718 mmHg 77%
    22:00 +9°C° 0 mm 8 mps 718 mmHg 77%
    23:00 +9°C° 0 mm 8 mps 718 mmHg 76%

    Tomorrow, 12 December, Tuesday

    Time Temperature Precipitation Wind Pressure Humidity
    00:00 +9°C° 0 mm 8 mps 718 mmHg 75%
    01:00 +8°C° 0 mm 9 mps 719 mmHg 74%
    02:00 +9°C° 0 mm 8 mps 719 mmHg 75%
    03:00 +9°C° 0 mm 7 mps 720 mmHg 75%
    04:00 +9°C° 0 mm 7 mps 720 mmHg 76%
    05:00 +8°C° 0 mm 6 mps 720 mmHg 77%
    06:00 +8°C° 0 mm 5 mps 721 mmHg 79%
    07:00 +8°C° 0 mm 4 mps 722 mmHg 81%
    08:00 +8°C° 0 mm 4 mps 722 mmHg 81%
    09:00 +8°C° 0 mm 4 mps 723 mmHg 81%
    10:00 +8°C° 0 mm 4 mps 723 mmHg 82%
    11:00 +8°C° 0.1 mm 4 mps 724 mmHg 79%
    12:00 +8°C° 0.1 mm 4 mps 725 mmHg 77%
    13:00 +8°C° 0.1 mm 4 mps 725 mmHg 74%
    14:00 +7°C° 0 mm 4 mps 726 mmHg 74%
    15:00 +6°C° 0 mm 4 mps 727 mmHg 74%
    16:00 +6°C° 0 mm 4 mps 727 mmHg 74%
    17:00 +5°C° 0.1 mm 4 mps 728 mmHg 74%
    18:00 +5°C° 0.1 mm 4 mps 729 mmHg 75%
    19:00 +4°C° 0.1 mm 4 mps 729 mmHg 75%
    20:00 +4°C° 0.6 mm 4 mps 730 mmHg 76%
    21:00 +3°C° 0.6 mm 4 mps 731 mmHg 77%
    22:00 +3°C° 0.6 mm 4 mps 731 mmHg 78%
    23:00 +1°C° 0.2 mm 4 mps 732 mmHg 77%

    Day after tomorrow, 13 December, Wednesday

    Time Temperature Precipitation Wind Pressure Humidity
    00:00 +1°C° 0.2 mm 4 mps 732 mmHg 76%
    01:00 +1°C° 0.2 mm 4 mps 732 mmHg 76%
    02:00 +1°C° 0 mm 3 mps 733 mmHg 76%
    03:00 +1°C° 0 mm 3 mps 733 mmHg 76%
    04:00 +1°C° 0 mm 3 mps 733 mmHg 77%
    05:00 0°C° 0 mm 3 mps 734 mmHg 78%
    06:00 +1°C° 0 mm 2 mps 734 mmHg 80%
    07:00 +1°C° 0 mm 2 mps 734 mmHg 81%
    08:00 +1°C° 0 mm 2 mps 735 mmHg 79%
    09:00 +1°C° 0 mm 3 mps 735 mmHg 77%
    10:00 +1°C° 0 mm 3 mps 735 mmHg 75%
    11:00 +1°C° 0 mm 3 mps 735 mmHg 73%
    12:00 +3°C° 0 mm 2 mps 735 mmHg 70%
    13:00 +3°C° 0 mm 2 mps 734 mmHg 68%
    14:00 +2°C° 0 mm 2 mps 734 mmHg 72%
    15:00 +1°C° 0 mm 2 mps 734 mmHg 75%
    16:00 -1°C° 0 mm 2 mps 733 mmHg 79%
    17:00 -1°C° 0 mm 2 mps 733 mmHg 80%
    18:00 -1°C° 0 mm 2 mps 733 mmHg 82%
    19:00 -2°C° 0 mm 2 mps 732 mmHg 83%
    20:00 -2°C° 0 mm 2 mps 732 mmHg 81%
    21:00 -2°C° 0 mm 2 mps 731 mmHg 79%
    22:00 -2°C° 0 mm 3 mps 731 mmHg 77%
    23:00 -2°C° 0 mm 3 mps 730 mmHg 75%

    14 December, Thursday

    Time Temperature Precipitation Wind Pressure Humidity
    00:00 -2°C° 0 mm 3 mps 730 mmHg 73%
    01:00 -2°C° 0 mm 3 mps 729 mmHg 71%
    02:00 -1°C° 0 mm 3 mps 728 mmHg 70%
    03:00 -1°C° 0 mm 3 mps 728 mmHg 70%
    04:00 -2°C° 0 mm 4 mps 727 mmHg 69%
    05:00 -1°C° 0 mm 3 mps 727 mmHg 70%
    06:00 0°C° 0 mm 3 mps 727 mmHg 72%
    07:00 0°C° 0 mm 3 mps 727 mmHg 74%
    08:00 +1°C° 0 mm 3 mps 726 mmHg 72%
    09:00 +2°C° 0 mm 3 mps 726 mmHg 71%
    10:00 +1°C° 0 mm 4 mps 726 mmHg 70%
    11:00 +3°C° 0 mm 4 mps 725 mmHg 70%
    12:00 +3°C° 0 mm 4 mps 725 mmHg 70%
    13:00 +3°C° 0 mm 4 mps 725 mmHg 69%
    14:00 +3°C° 0 mm 4 mps 724 mmHg 73%
    15:00 +3°C° 0 mm 4 mps 724 mmHg 76%
    16:00 +2°C° 0 mm 3 mps 723 mmHg 79%
    17:00 +1°C° 0.1 mm 4 mps 723 mmHg 80%
    18:00 +1°C° 0.1 mm 4 mps 723 mmHg 81%
    19:00 +1°C° 0.1 mm 4 mps 722 mmHg 82%
    20:00 +3°C° 0 mm 4 mps 722 mmHg 82%
    21:00 +3°C° 0 mm 4 mps 721 mmHg 81%
    22:00 +3°C° 0 mm 4 mps 720 mmHg 80%
    23:00 +3°C° 0.1 mm 4 mps 720 mmHg 81%

    15 December, Friday

    Time Temperature Precipitation Wind Pressure Humidity
    00:00 +3°C° 0.1 mm 4 mps 720 mmHg 82%
    01:00 +3°C° 0.1 mm 4 mps 719 mmHg 83%
    02:00 +3°C° 0.5 mm 4 mps 720 mmHg 85%
    03:00 +3°C° 0.5 mm 4 mps 720 mmHg 87%
    04:00 +3°C° 0.5 mm 4 mps 720 mmHg 89%
    05:00 +3°C° 0.1 mm 4 mps 721 mmHg 87%
    06:00 +2°C° 0.1 mm 3 mps 722 mmHg 86%
    07:00 +2°C° 0.1 mm 3 mps 722 mmHg 84%
    08:00 +2°C° 0 mm 3 mps 723 mmHg 82%
    09:00 +3°C° 0 mm 3 mps 723 mmHg 80%
    10:00 +3°C° 0 mm 3 mps 724 mmHg 77%
    11:00 +4°C° 0 mm 2 mps 724 mmHg 75%
    12:00 +4°C° 0 mm 2 mps 723 mmHg 73%
    13:00 +5°C° 0 mm 2 mps 723 mmHg 71%
    14:00 +4°C° 0 mm 2 mps 722 mmHg 74%
    15:00 +4°C° 0 mm 2 mps 722 mmHg 76%
    16:00 +4°C° 0 mm 1 mps 721 mmHg 79%
    17:00 +4°C° 0.2 mm 1 mps 721 mmHg 81%
    18:00 +4°C° 0.2 mm 1 mps 721 mmHg 83%
    19:00 +3°C° 0.2 mm 1 mps 720 mmHg 85%
    20:00 +3°C° 0.7 mm 1 mps 720 mmHg 86%
    21:00 +3°C° 0.7 mm 1 mps 720 mmHg 87%
    22:00 +3°C° 0.7 mm 1 mps 719 mmHg 88%
    23:00 +2°C° 1.1 mm 2 mps 719 mmHg 88%

    16 December, Saturday

    Time Temperature Precipitation Wind Pressure Humidity
    00:00 +2°C° 1.1 mm 2 mps 719 mmHg 88%
    01:00 +1°C° 1.1 mm 3 mps 719 mmHg 88%
    02:00 +1°C° 0.2 mm 2 mps 720 mmHg 89%
    03:00 +1°C° 0.2 mm 2 mps 720 mmHg 89%
    04:00 +1°C° 0.2 mm 2 mps 721 mmHg 90%
    05:00 +1°C° 0 mm 1 mps 721 mmHg 90%
    06:00 +1°C° 0 mm 1 mps 722 mmHg 90%
    07:00 0°C° 0 mm 1 mps 722 mmHg 90%
    08:00 +1°C° 0 mm 1 mps 723 mmHg 89%
    09:00 +2°C° 0 mm 1 mps 724 mmHg 88%
    10:00 +2°C° 0 mm 2 mps 724 mmHg 86%
    11:00 +2°C° 0 mm 2 mps 724 mmHg 85%
    12:00 +3°C° 0 mm 2 mps 724 mmHg 85%
    13:00 +3°C° 0 mm 2 mps 724 mmHg 84%
    14:00 +2°C° 0 mm 2 mps 725 mmHg 85%
    15:00 +1°C° 0 mm 2 mps 725 mmHg 86%
    16:00 -1°C° 0 mm 2 mps 726 mmHg 87%
    17:00 -1°C° 0 mm 2 mps 726 mmHg 87%
    18:00 -1°C° 0 mm 2 mps 727 mmHg 87%
    19:00 -1°C° 0 mm 3 mps 727 mmHg 88%
    20:00 -1°C° 0 mm 2 mps 728 mmHg 88%
    21:00 -1°C° 0 mm 2 mps 728 mmHg 88%
    22:00 -1°C° 0 mm 2 mps 729 mmHg 88%
    23:00 -1°C° 0 mm 2 mps 729 mmHg 89%
    Show more